SITRO-AIS 28

Last updated on Sun Dec 14 2025 00:03:50 GMT+0000 (Coordinated Universal Time)

1 59071U 24039U 25347.32214380 .00008527 00000+0 68997-3 0 9997 2 59071 95.3951 107.6455 0147456 256.3145 102.1626 14.91677393 97012
UTC large
Height (km)
Speed (km/s)
/
Latitude / Longitude
Inclination (degrees)
Orbital Period (minutes)
Azimuth
Elevation
Range (km)
Doppler Factor

Next 0 passes for location: London (51.5072 / 0.1276)

Sorry there are no passes over London.